Meridian NAS, MS

4:39 PM CDT on May 22, 2017 (GMT -0500)
Meridian Naval Air Station

Weather History for KNMM - November, 2012

Change the Weather History Date:

Sunday, November 18, 2012

  Actual Average Record
Temperature  
Mean Temperature 47 °F -  
Max Temperature 64 °F 63 °F 80 °F (2016)
Min Temperature 30 °F 44 °F 25 °F (1997)
Degree Days  
Heating Degree Days 18    
Moisture  
Dew Point 36 °F    
Average Humidity 71    
Maximum Humidity 93    
Minimum Humidity 37    
Precipitation  
Precipitation 0.00 in - - ()
Sea Level Pressure  
Sea Level Pressure 30.37 in    
Wind  
Wind Speed 2 mph (ENE)    
Max Wind Speed 10 mph    
Max Gust Speed 22 mph    
Visibility 10 miles    
Events      
Averages and records for this station are not official NWS values.
T = Trace of Precipitation, MM = Missing Value Source: NWS Daily Summary

Daily Weather History Graph

Daily Weather History Graph

Search for Another Location

Airport or City:

Trip Planner

Search our weather history database for the weather conditions in past years. The results will help you decide how hot, cold, wet, or windy it might be!

Date:

Astronomy

Nov. 18, 2012 Rise Set
Actual Time 6:27 AM CST 4:51 PM CST
Civil Twilight 6:00 AM CST 5:17 PM CST
Nautical Twilight 5:31 AM CST 5:47 PM CST
Astronomical Twilight 5:01 AM CST 6:17 PM CST
Moon 10:57 AM CST (11/18) 10:06 PM CST (11/18)
Length of Visible Light 11h 17m
Length of Day
10h 24m
Waxing Crescent, 30% of the Moon is Illuminated
Nov 18
Waxing Crescent
Nov 20
First Quarter
Nov 28
Full
Dec 6
Last Quarter
Dec 13
New

Hourly Weather History & Observations

Time (CST) Temp. Dew Point Humidity Pressure Visibility Wind Dir Wind Speed Gust Speed Precip Events Conditions
12:56 AM 37.0 °F 34.0 °F 89% 30.39 in 10.0 mi Calm Calm - N/A   Clear
1:56 AM 35.1 °F 33.1 °F 92% 30.38 in 10.0 mi Calm Calm - N/A   Clear
2:56 AM 34.0 °F 32.0 °F 92% 30.39 in 10.0 mi Calm Calm - N/A   Clear
3:56 AM 33.1 °F 30.9 °F 92% 30.38 in 8.0 mi Calm Calm - N/A   Clear
4:56 AM 32.0 °F 30.0 °F 92% 30.40 in 10.0 mi Calm Calm - N/A   Clear
5:56 AM 30.9 °F 28.9 °F 92% 30.41 in 10.0 mi Calm Calm - N/A   Clear
6:56 AM 30.9 °F 28.9 °F 92% 30.42 in 6.0 mi Calm Calm - N/A   Clear
7:56 AM 37.9 °F 35.1 °F 89% 30.43 in 9.0 mi Calm Calm - N/A   Clear
8:56 AM 48.0 °F 35.1 °F 61% 30.44 in 10.0 mi East 6.9 mph - N/A   Clear
9:56 AM 54.0 °F 34.0 °F 47% 30.44 in 10.0 mi East 4.6 mph - N/A   Clear
10:56 AM 57.0 °F 36.0 °F 45% 30.42 in 10.0 mi Variable 4.6 mph - N/A   Clear
11:56 AM 61.0 °F 36.0 °F 39% 30.38 in 10.0 mi East 10.4 mph - N/A   Clear
12:56 PM 63.0 °F 37.0 °F 38% 30.36 in 10.0 mi NE 5.8 mph 21.9 mph N/A   Clear
1:56 PM 64.0 °F 37.9 °F 38% 30.33 in 10.0 mi ENE 5.8 mph - N/A   Clear
2:01 PM 64.4 °F 37.4 °F 37% 30.29 in 10.0 mi ENE 10.4 mph 16.1 mph N/A   Clear
2:56 PM 63.0 °F 37.9 °F 40% 30.32 in 10.0 mi East 5.8 mph - N/A   Clear
3:56 PM 63.0 °F 37.9 °F 40% 30.33 in 10.0 mi NE 5.8 mph - N/A   Partly Cloudy
4:56 PM 57.0 °F 39.9 °F 53% 30.33 in 10.0 mi Calm Calm - N/A   Partly Cloudy
5:56 PM 51.1 °F 41.0 °F 68% 30.34 in 10.0 mi Calm Calm - N/A   Partly Cloudy
6:56 PM 46.9 °F 41.0 °F 80% 30.35 in 10.0 mi Calm Calm - N/A   Partly Cloudy
7:56 PM 45.0 °F 39.9 °F 82% 30.37 in 10.0 mi Calm Calm - N/A   Partly Cloudy
8:56 PM 42.1 °F 39.0 °F 89% 30.37 in 10.0 mi Calm Calm - N/A   Clear
9:56 PM 41.0 °F 39.0 °F 93% 30.36 in 10.0 mi Calm Calm - N/A   Clear
10:56 PM 39.0 °F 37.0 °F 93% 30.36 in 10.0 mi Calm Calm - N/A   Clear
11:56 PM 37.9 °F 36.0 °F 93% 30.36 in 10.0 mi Calm Calm - N/A   Clear